This is the latest recevied weather packets stored in our database for station/object VK5GR-12. If no packets are shown the sender has not sent any weather packets the latest 10 day(s).
| Time | Temp. | Humidity | Pressure | Rain* | Wind** | Luminosity | Snow |
|---|---|---|---|---|---|---|---|
| 1777626065 | 25.56° C | 36% | 1014.4 hPa | 0 mm | - | 0 W/m² | - |
| 1777625164 | 26.11° C | 35% | 1014.3 hPa | 0 mm | - | 0 W/m² | - |
| 1777624262 | 26.11° C | 35% | 1014.1 hPa | 0 mm | - | 0 W/m² | - |
| 1777623362 | 26.11° C | 36% | 1013.9 hPa | 0 mm | - | 0 W/m² | - |
| 1777622457 | 26.67° C | 35% | 1013.9 hPa | 0 mm | - | 3 W/m² | - |
| 1777621552 | 27.22° C | 33% | 1014.2 hPa | 0 mm | - | 9 W/m² | - |
| 1777620652 | 27.22° C | 33% | 1013.8 hPa | 0 mm | - | 30 W/m² | - |
| 1777619748 | 27.78° C | 32% | 1014.1 hPa | 0 mm | - | 44 W/m² | - |
| 1777618844 | 28.33° C | 31% | 1014.2 hPa | 0 mm | - | 78 W/m² | - |
| 1777617944 | 28.89° C | 30% | 1014.2 hPa | 0 mm | - | 108 W/m² | - |
| 1777617040 | 28.33° C | 32% | 1014.5 hPa | 0 mm | - | 108 W/m² | - |
| 1777616137 | 27.78° C | 32% | 1014.3 hPa | 0 mm | - | 88 W/m² | - |
| 1777615232 | 28.33° C | 32% | 1014.3 hPa | 0 mm | - | 81 W/m² | - |
| 1777614331 | 28.89° C | 31% | 1014.6 hPa | 0 mm | - | 122 W/m² | - |
| 1777613426 | 28.89° C | 32% | 1014.5 hPa | 0 mm | - | 134 W/m² | - |
| 1777612520 | 28.89° C | 31% | 1014.6 hPa | 0 mm | - | 209 W/m² | - |
| 1777611618 | 28.33° C | 32% | 1014.6 hPa | 0 mm | - | 112 W/m² | - |
| 1777610714 | 28.89° C | 31% | 1014.9 hPa | 0 mm | - | 355 W/m² | - |
| 1777609812 | 28.33° C | 32% | 1014.9 hPa | 0 mm | - | 247 W/m² | - |
| 1777608910 | 28.33° C | 32% | 1014.9 hPa | 0 mm | - | 196 W/m² | - |
| 1777608007 | 28.33° C | 32% | 1015.3 hPa | 0 mm | - | 335 W/m² | - |
| 1777607107 | 28.89° C | 32% | 1015.1 hPa | 0 mm | - | 208 W/m² | - |
| 1777606205 | 28.89° C | 32% | 1015.6 hPa | 0 mm | - | 300 W/m² | - |
| 1777605303 | 28.89° C | 31% | 1015.9 hPa | 0 mm | - | 247 W/m² | - |
| 1777604397 | 28.89° C | 31% | 1016.1 hPa | 0 mm | - | 453 W/m² | - |
* Rain latest hour (hover to see other rain measurements)
** Current wind speed in m/s (hover to see current wind gust speed)